Location: Bastelaar
(51.0950°N, 3.8602°E)
Time: 05:44:41
(UTC+00:00)

Cosmos 1092 Rocket - Pass Details

Date: 18 November 2025
Orbit: 953 x 994 km, 82.9° (Epoch: 10 December)

Event Time Altitude Azimuth Distance (km) Brightness Sun altitude
Rises 18:07:04 0° 351° (N) 3,697 7.1 -20.8°
Reaches altitude 10° 18:09:39 10° 355° (N) 2,739 6.3 -21.2°
Maximum altitude 18:15:51 61° 76° (ENE) 1,096 3.9 -22.1°
Drops below altitude 10° 18:21:57 10° 156° (SSE) 2,693 6.1 -23.1°
Sets 18:24:28 0° 160° (SSE) 3,631 6.8 -23.5°
